[[{"header":{"parameterUnit":"m.s-1","parameterCategory":2,"la1":30.2991,"la2":30.254,"lo1":-89.0895,"lo2":-89.0444,"dy":0.0017,"dx":0.0017,"nx":28,"ny":28,"refTime":"2025-08-20T09:00:00:Z","depth":"0","parameterNumber":2,"parameterNumberName":"U-component_of_CURRENTS"},"data":[0,0,0,0,0,0,0,0,0,0,0,0,0,0,0,0,0,0,0,0,0,0,0,0,0,0,0,0,0,0,0,0,0,0,0,0,0,0,0,0,0,0,0,0,0,0,0,0,0,0,0,0,0,0,0,0,0,0,0.2997,0.2997,0,0.2993,0.2993,0.2993,0.297,0.2969,0.2969,0.2969,0.2952,0.2952,0.2951,0,0,0,0,0,0,0,0,0,0,0,0,0,0.3006,0.3006,0.2997,0.2997,0.2997,0.2993,0.2993,0.2993,0.297,0.2969,0.2969,0.2968,0.2952,0.2952,0.2951,0,0,0,0,0,0,0,0,0,0,0,0,0,0.3001,0.3006,0.2997,0.2987,0.2986,0.2993,0.2993,0.2993,0.297,0.2969,0.2969,0.2968,0.2952,0.2952,0.2951,0.2963,0,0,0.2951,0.2951,0,0,0,0,0,0,0,0,0.3001,0.3,0.2988,0.2987,0.2986,0.2983,0.299,0.2983,0.297,0.2974,0.2969,0.2968,0.2962,0.2961,0.296,0.2962,0.2961,0.2951,0.2951,0.2951,0.2951,0,0,0,0,0,0,0,0.3001,0.3,0.2994,0.2988,0.2987,0.299,0.2988,0.2989,0.297,0.2974,0.2972,0.2975,0.2962,0.296,0.2959,0.2961,0.2951,0.2951,0.2951,0.2951,0.3003,0.3004,0,0,0,0,0,0,0.3005,0.3001,0.2994,0.2994,0.2994,0.299,0.2988,0.2983,0.297,0.2968,0.2975,0.2974,0.296,0.2959,0.2958,0.2997,0.2951,0.2951,0.2951,0.3002,0.3003,0.3005,0,0,0,0,0,0,0.3005,0.3004,0.2994,0.2999,0.2998,0.2991,0.2985,0.2983,0.2985,0.2972,0.2969,0.298,0.296,0.2959,0.2969,0.2995,0.2951,0.2951,0.3,0.3002,0.3004,0.3057,0,0,0,0,0,0,0.3005,0.3004,0.3004,0.2999,0.2998,0.3003,0.2986,0.2984,0.2988,0.2986,0.2975,0.2973,0.2959,0.2969,0.2969,0.2994,0.2951,0.2998,0.3001,0.3003,0.3053,0.3061,0.3067,0,0,0,0,0,0.3005,0.3007,0.3004,0.3004,0.2997,0.3004,0.3004,0.2995,0.2989,0.2994,0.299,0.2973,0.2987,0.297,0.2969,0.2995,0.2997,0.3,0.3003,0.305,0.3059,0.3067,0,0,0,0,0,0,0.301,0.3005,0.3001,0.3,0.3005,0.3001,0.3004,0.3002,0.3003,0.3002,0.2987,0.2985,0.3005,0.2996,0.2978,0.302,0.2991,0.2994,0.3027,0.3035,0.3042,0.3058,0.295,0,0,0,0,0,0.3013,0.3011,0.3011,0.3012,0.3015,0.3013,0.3015,0.3013,0.3013,0.3012,0.3004,0.3005,0.3019,0.3022,0.3024,0.3045,0.3088,0.3064,0.3071,0.3076,0.3091,0.3213,0.3233,0.3016,0.3016,0.3016,0,0,0.3014,0.3013,0.3011,0.3014,0.3014,0.3025,0.3012,0.302,0.3033,0.3011,0.3023,0.3026,0.303,0.3053,0.3062,0.3048,0.3155,0.308,0.3085,0.3097,0.3219,0.3241,0.326,0.3018,0.3018,0.3017,0,0,0.302,0.3017,0.3019,0.3026,0.3034,0.3037,0.3043,0.3044,0.3048,0.3066,0.306,0.3085,0.3086,0.3104,0.3113,0.3163,0.3187,0.3158,0.3206,0.3325,0.3345,0.3363,0.3424,0.3447,0.3163,0.3163,0.3163,0,0.3024,0.3021,0.3023,0.3032,0.3041,0.3046,0.3059,0.3069,0.3074,0.3102,0.3076,0.3136,0.3118,0.3187,0.3188,0.318,0.3237,0.3172,0.3337,0.3356,0.3373,0.3432,0.3457,0.3166,0.3165,0.3165,0.3165,0,0.3029,0.3033,0.3037,0.3049,0.3066,0.3074,0.3094,0.3117,0.3126,0.3149,0.3214,0.3211,0.326,0.325,0.3223,0.3336,0.3331,0.3333,0.3319,0.3399,0.3455,0.348,0.317,0.3169,0.3168,0.3167,0,0,0.3018,0.3036,0.3036,0.3049,0.3073,0.3088,0.3131,0.318,0.3237,0.3253,0.3339,0.3344,0.3371,0.3383,0.3375,0.3447,0.3583,0.3435,0.344,0.35,0.3827,0.3707,0.3722,0.3631,0.3636,0.364,0.3809,0,0.3018,0.3032,0.3048,0.3076,0.3085,0.3124,0.3169,0.3226,0.3278,0.3363,0.3408,0.3478,0.3418,0.3456,0.3524,0.358,0.3655,0.3535,0.3737,0.3742,0.3632,0.375,0.3517,0.364,0.3833,0.3838,0.3841,0,0.3007,0.3022,0.3038,0.3096,0.3108,0.3134,0.3235,0.3282,0.341,0.3463,0.3565,0.3613,0.3717,0.3658,0.3828,0.3762,0.3798,0.3828,0.3836,0.3727,0.367,0.3597,0.3678,0.358,0.3879,0.3876,0.3873,0,0.2979,0.3016,0.3028,0.3041,0.3107,0.3143,0.3195,0.3312,0.3398,0.3549,0.3653,0.3775,0.3862,0.3957,0.3993,0.3947,0.4175,0.413,0.4058,0.4048,0.3888,0.3855,0.3902,0.4272,0.4271,0.4271,0.427,0,0.2956,0.2968,0.3015,0.3019,0.308,0.3133,0.324,0.3313,0.3474,0.3605,0.371,0.3838,0.395,0.4078,0.409,0.4153,0.4273,0.4096,0.4107,0.3893,0.386,0.3794,0.3749,0.4277,0.4276,0.4274,0.4273,0,0.2909,0.293,0.2959,0.3028,0.3058,0.3104,0.3263,0.3363,0.3503,0.3689,0.3756,0.3946,0.4099,0.4187,0.4334,0.4274,0.421,0.4325,0.4027,0.3999,0.3785,0.375,0.3701,0.36,0.4286,0.4284,0.4283,0,0.2879,0.2882,0.2957,0.3004,0.3032,0.3124,0.3211,0.3356,0.3473,0.374,0.3831,0.4041,0.4147,0.4308,0.4248,0.4281,0.4184,0.4078,0.3932,0.3769,0.3743,0.361,0.352,0.3741,0.3735,0.3731,0.3727,0,0.285,0.2875,0.2918,0.3003,0.308,0.3164,0.3285,0.3373,0.3563,0.3708,0.3874,0.3979,0.4107,0.4021,0.4054,0.4031,0.3847,0.398,0.3924,0.3416,0.317,0.3076,0.3606,0.3686,0.369,0.3693,0.3695,0.3697,0.2851,0.2881,0.2955,0.3021,0.3103,0.3163,0.3197,0.3332,0.3459,0.3596,0.377,0.3808,0.3806,0.3792,0.3756,0.3519,0.3565,0.3378,0.3381,0.3288,0.3081,0.3484,0.3501,0.3504,0.3507,0.3509,0.3511,0,0.2874,0.2914,0.2981,0.3043,0.3076,0.3128,0.3223,0.3224,0.328,0.3395,0.3478,0.3415,0.3327,0.3296,0.3096,0.2936,0.2798,0.2871,0.2647,0.2616,0.3081,0.2943,0.2702,0.2702,0.2702,0.2703,0.2703,0.2703,0.2903,0.2957,0.2968,0.2987,0.3012,0.299,0.2993,0.2992,0.3018,0.2955,0.2875,0.2904,0.2952,0.2843,0.2621,0.2539,0.2378,0.2224,0.2316,0.2644,0.2691,0.2736,0.2599,0.2289,0.2289,0.1689,0.1684,0.1681]},{"header":{"parameterUnit":"m.s-1","parameterCategory":2,"la1":30.2991,"la2":30.254,"lo1":-89.0895,"lo2":-89.0444,"dy":0.0017,"dx":0.0017,"nx":28,"ny":28,"refTime":"2025-08-20T09:00:00:Z","depth":"0","parameterNumber":3,"parameterNumberName":"V-component_of_CURRENTS"},"data":[0,0,0,0,0,0,0,0,0,0,0,0,0,0,0,0,0,0,0,0,0,0,0,0,0,0,0,0,0,0,0,0,0,0,0,0,0,0,0,0,0,0,0,0,0,0,0,0,0,0,0,0,0,0,0,0,0,0,0.0359,0.0359,0,0.0328,0.0327,0.0327,0.0301,0.0301,0.03,0.03,0.0259,0.0258,0.0257,0,0,0,0,0,0,0,0,0,0,0,0,0,0.0355,0.0355,0.0359,0.0359,0.0358,0.0328,0.0327,0.0327,0.0301,0.0301,0.03,0.03,0.0259,0.0258,0.0257,0,0,0,0,0,0,0,0,0,0,0,0,0,0.0343,0.0355,0.0359,0.0342,0.0341,0.0328,0.0327,0.0327,0.0301,0.0301,0.03,0.03,0.0259,0.0258,0.0257,0.0254,0,0,0.0252,0.0252,0,0,0,0,0,0,0,0,0.0343,0.0343,0.0345,0.0344,0.0342,0.0319,0.0311,0.0302,0.0301,0.0315,0.03,0.03,0.0279,0.0276,0.0269,0.0252,0.025,0.0252,0.0252,0.0251,0.0251,0,0,0,0,0,0,0,0.0344,0.0344,0.0346,0.0345,0.0343,0.0323,0.0321,0.0309,0.0298,0.0314,0.0312,0.031,0.0278,0.0271,0.0268,0.0249,0.0252,0.0251,0.025,0.025,0.0234,0.0234,0,0,0,0,0,0,0.0353,0.0345,0.0347,0.0345,0.0343,0.0323,0.0321,0.0326,0.0298,0.0294,0.0311,0.0309,0.0273,0.027,0.0266,0.0279,0.0251,0.025,0.0249,0.0233,0.0234,0.0234,0,0,0,0,0,0,0.0353,0.0354,0.0348,0.0344,0.0342,0.0324,0.0329,0.0325,0.0321,0.0296,0.0291,0.0311,0.0273,0.0268,0.0259,0.0277,0.0249,0.0248,0.0233,0.0233,0.0234,0.0293,0,0,0,0,0,0,0.0353,0.0354,0.0359,0.0345,0.0343,0.0349,0.0329,0.0325,0.0321,0.0319,0.0295,0.029,0.0272,0.0262,0.0258,0.0274,0.0247,0.0232,0.0233,0.0234,0.029,0.0295,0.03,0,0,0,0,0,0.0353,0.0366,0.0359,0.0359,0.0351,0.035,0.0347,0.0331,0.0321,0.0326,0.0306,0.0291,0.0264,0.0261,0.0257,0.0273,0.0232,0.0233,0.0234,0.0288,0.0294,0.03,0,0,0,0,0,0,0.0364,0.0364,0.0357,0.0368,0.0362,0.0346,0.0347,0.0337,0.0324,0.032,0.0295,0.029,0.0287,0.0271,0.0268,0.0269,0.0246,0.0246,0.0289,0.0295,0.0299,0.032,0.0245,0,0,0,0,0,0.037,0.038,0.0373,0.038,0.038,0.0364,0.036,0.0351,0.0339,0.0333,0.0317,0.0299,0.0287,0.0284,0.0268,0.027,0.0264,0.0277,0.0282,0.0286,0.03,0.0309,0.0316,0.0237,0.0237,0.0237,0,0,0.0375,0.0376,0.038,0.0383,0.0375,0.0386,0.0361,0.0361,0.0373,0.033,0.0338,0.0312,0.029,0.0291,0.0289,0.0281,0.0303,0.0287,0.0291,0.0303,0.0311,0.0319,0.0326,0.0238,0.0238,0.0237,0,0,0.0395,0.0392,0.0409,0.0411,0.0408,0.0401,0.0405,0.0394,0.0393,0.0395,0.0366,0.0354,0.0337,0.0327,0.032,0.0342,0.0324,0.0332,0.0379,0.0388,0.0395,0.0401,0.0395,0.04,0.0339,0.034,0.034,0,0.04,0.0424,0.0413,0.0431,0.0441,0.0413,0.0437,0.0432,0.042,0.043,0.0407,0.0392,0.036,0.0376,0.0373,0.0355,0.0351,0.0361,0.0396,0.0402,0.0407,0.0399,0.0404,0.0343,0.0342,0.0342,0.0342,0,0.0437,0.0455,0.0465,0.0483,0.0491,0.0504,0.0502,0.0508,0.0499,0.0495,0.0506,0.0466,0.0466,0.0445,0.0411,0.0434,0.0415,0.0398,0.0386,0.0419,0.0408,0.0412,0.0347,0.0346,0.0345,0.0344,0,0,0.0454,0.0487,0.049,0.0519,0.0523,0.0541,0.0562,0.0584,0.0618,0.0591,0.064,0.0589,0.057,0.056,0.0521,0.0511,0.0523,0.047,0.0469,0.0472,0.0536,0.0498,0.0498,0.0515,0.0516,0.0517,0.0511,0,0.0488,0.0544,0.0547,0.0601,0.0633,0.0627,0.066,0.0674,0.0679,0.0716,0.0681,0.0704,0.0617,0.0627,0.0602,0.0555,0.0539,0.0526,0.0497,0.0496,0.0465,0.0504,0.0505,0.0498,0.0515,0.0516,0.0516,0,0.0525,0.0564,0.0625,0.0688,0.0702,0.0727,0.079,0.0818,0.0847,0.0857,0.0862,0.0841,0.0829,0.0755,0.0694,0.0692,0.0617,0.0565,0.0564,0.0514,0.0466,0.0468,0.0504,0.0399,0.0522,0.0522,0.0521,0,0.0562,0.0621,0.0679,0.0696,0.0754,0.0788,0.0822,0.0859,0.0919,0.0958,0.1014,0.0977,0.0991,0.0904,0.0782,0.0749,0.0714,0.0662,0.0554,0.055,0.0539,0.0532,0.048,0.0618,0.0618,0.0618,0.0618,0,0.0603,0.065,0.0703,0.0737,0.0826,0.0846,0.0945,0.097,0.1044,0.1148,0.1098,0.1179,0.1029,0.0989,0.0851,0.0727,0.0773,0.0575,0.0555,0.0556,0.0551,0.0447,0.037,0.0618,0.0618,0.0618,0.0618,0,0.0634,0.0662,0.074,0.0814,0.0845,0.0913,0.1033,0.1117,0.1168,0.1308,0.1339,0.1341,0.1294,0.1133,0.0997,0.0833,0.064,0.0646,0.0646,0.0625,0.0404,0.033,0.0246,0.0198,0.0533,0.0532,0.0531,0,0.0656,0.0697,0.0798,0.0864,0.09,0.1006,0.1096,0.117,0.1274,0.1428,0.1514,0.1508,0.1539,0.1312,0.1026,0.0789,0.0649,0.06,0.0525,0.0407,0.031,0.0259,0.0221,0.053,0.0529,0.0529,0.0528,0,0.0707,0.0737,0.0809,0.0939,0.1038,0.1164,0.1293,0.1393,0.1518,0.1654,0.1816,0.1857,0.1642,0.1404,0.1038,0.0857,0.0523,0.0579,0.0474,0.0319,0.0247,0.0188,0.0506,0.0524,0.0524,0.0524,0.0525,0.0525,0.0748,0.081,0.0908,0.1031,0.1152,0.1307,0.1428,0.1592,0.1784,0.2003,0.2025,0.211,0.1732,0.1246,0.0989,0.0496,0.049,0.0337,0.0262,0.0226,0.0164,0.0458,0.0439,0.0439,0.0439,0.0439,0.0439,0,0.081,0.0884,0.1001,0.1153,0.1289,0.1343,0.1558,0.1704,0.1948,0.2132,0.2283,0.212,0.1688,0.1213,0.0544,0.0235,0.013,0.0074,0.0012,-0.0008,0.0278,0.0262,0.0185,0.0185,0.0185,0.0185,0.0185,0.0185,0.0849,0.0963,0.1019,0.1237,0.1351,0.155,0.1676,0.1905,0.2068,0.229,0.232,0.2315,0.1931,0.0819,0.0128,-0.0024,-0.0204,-0.0268,-0.0347,-0.0152,-0.0132,-0.0114,-0.0145,-0.0306,-0.0307,-0.0581,-0.0584,-0.0587]}],[{"header":{"parameterUnit":"m.s-1","parameterCategory":2,"la1":30.2991,"la2":30.254,"lo1":-89.0895,"lo2":-89.0444,"dy":0.0017,"dx":0.0017,"nx":28,"ny":28,"refTime":"2025-08-20T09:00:00:Z","depth":"2","parameterNumber":2,"parameterNumberName":"U-component_of_CURRENTS"},"data":[0,0,0,0,0,0,0,0,0,0,0,0,0,0,0,0,0,0,0,0,0,0,0,0,0,0,0,0,0,0,0,0,0,0,0,0,0,0,0,0,0,0,0,0,0,0,0,0,0,0,0,0,0,0,0,0,0,0,0.2565,0.2565,0,0.2568,0.2568,0.2567,0.256,0.2559,0.2559,0.2559,0.2556,0.2556,0.2556,0,0,0,0,0,0,0,0,0,0,0,0,0,0.2565,0.2565,0.2565,0.2565,0.2565,0.2568,0.2568,0.2567,0.256,0.2559,0.2559,0.2559,0.2556,0.2556,0.2556,0,0,0,0,0,0,0,0,0,0,0,0,0,0.2565,0.2565,0.2565,0.2563,0.2563,0.2568,0.2568,0.2567,0.256,0.2559,0.2559,0.2559,0.2556,0.2556,0.2556,0.2559,0,0,0.2556,0.2556,0,0,0,0,0,0,0,0,0.2565,0.2564,0.2563,0.2563,0.2563,0.2565,0.2567,0.2565,0.256,0.2559,0.2559,0.2559,0.256,0.256,0.2558,0.2559,0.2558,0.2556,0.2556,0.2556,0.2556,0,0,0,0,0,0,0,0.2565,0.2564,0.2564,0.2563,0.2563,0.2566,0.2566,0.2566,0.2559,0.2559,0.2559,0.2562,0.256,0.2558,0.2558,0.2558,0.2556,0.2556,0.2556,0.2556,0.261,0.2611,0,0,0,0,0,0,0.2567,0.2564,0.2564,0.2565,0.2566,0.2567,0.2566,0.2563,0.2559,0.2559,0.2562,0.2562,0.2558,0.2558,0.2558,0.2602,0.2556,0.2556,0.2556,0.2609,0.261,0.2612,0,0,0,0,0,0,0.2567,0.2567,0.2564,0.2566,0.2566,0.2567,0.2563,0.2563,0.2572,0.2562,0.2561,0.2573,0.2558,0.2558,0.2573,0.26,0.2556,0.2556,0.2607,0.2609,0.2611,0.2663,0,0,0,0,0,0,0.2567,0.2567,0.2571,0.2566,0.2566,0.2575,0.2564,0.2563,0.2575,0.2574,0.2571,0.257,0.2558,0.2573,0.2573,0.2599,0.2556,0.2605,0.2608,0.261,0.266,0.2667,0.2673,0,0,0,0,0,0.2567,0.257,0.2571,0.2571,0.257,0.2576,0.2576,0.2575,0.2576,0.2582,0.2585,0.257,0.259,0.2574,0.2574,0.26,0.2604,0.2607,0.261,0.2657,0.2666,0.2673,0,0,0,0,0,0,0.2572,0.2569,0.257,0.2572,0.2579,0.2575,0.2583,0.2585,0.2592,0.2595,0.2583,0.2583,0.2608,0.2599,0.2581,0.2626,0.2597,0.26,0.2633,0.2641,0.2647,0.266,0.2556,0,0,0,0,0,0.2576,0.2577,0.2579,0.2583,0.2588,0.2589,0.2594,0.2596,0.26,0.2603,0.2601,0.2606,0.262,0.2625,0.2629,0.265,0.2674,0.267,0.2677,0.2682,0.2694,0.2769,0.2784,0.2622,0.2622,0.2622,0,0,0.2578,0.2579,0.258,0.2585,0.2589,0.26,0.2592,0.2605,0.2619,0.2602,0.2622,0.2628,0.2631,0.2656,0.2667,0.2652,0.274,0.2686,0.2691,0.27,0.2774,0.279,0.2804,0.2625,0.2624,0.2624,0,0,0.2585,0.2587,0.2592,0.2599,0.2612,0.2617,0.2625,0.2631,0.264,0.2662,0.2659,0.2686,0.2693,0.2708,0.2715,0.2764,0.2773,0.2764,0.2808,0.2881,0.2895,0.2907,0.2954,0.2971,0.2767,0.2767,0.2768,0,0.2591,0.2592,0.2596,0.2606,0.2617,0.2627,0.2641,0.2654,0.2666,0.269,0.2676,0.2728,0.2722,0.2775,0.2787,0.278,0.2816,0.2774,0.2891,0.2904,0.2916,0.2961,0.2979,0.277,0.277,0.277,0.2769,0,0.2596,0.2604,0.261,0.2625,0.2642,0.2654,0.2675,0.2699,0.2716,0.2737,0.2793,0.2797,0.2836,0.2836,0.2822,0.2906,0.2902,0.2891,0.2871,0.2936,0.2978,0.2996,0.2774,0.2773,0.2773,0.2772,0,0,0.2587,0.2609,0.2611,0.262,0.2653,0.2661,0.2707,0.275,0.2792,0.2819,0.2882,0.2905,0.2928,0.2938,0.2937,0.2987,0.3091,0.2976,0.2979,0.3024,0.3248,0.3139,0.3147,0.3109,0.3112,0.3115,0.3242,0,0.2589,0.2605,0.2622,0.2646,0.2655,0.2691,0.2735,0.2783,0.2828,0.2893,0.2936,0.2992,0.2962,0.2993,0.3044,0.3088,0.3141,0.3057,0.3178,0.3181,0.3078,0.3165,0.2884,0.2965,0.3259,0.3262,0.3264,0,0.258,0.2595,0.2614,0.2656,0.2667,0.2691,0.2768,0.281,0.2914,0.2959,0.304,0.3077,0.3168,0.3127,0.3257,0.321,0.3236,0.3257,0.3263,0.3156,0.3105,0.2949,0.2985,0.3293,0.3291,0.3288,0.3286,0,0.2552,0.2585,0.2599,0.2609,0.2665,0.2694,0.2738,0.2833,0.2896,0.3017,0.3088,0.319,0.3266,0.3328,0.3368,0.3337,0.3498,0.3463,0.3387,0.3379,0.3159,0.3125,0.3556,0.3555,0.3555,0.3555,0.3554,0,0.2533,0.2541,0.2584,0.2588,0.2632,0.268,0.2755,0.2818,0.2941,0.3035,0.3125,0.3216,0.3326,0.3418,0.3429,0.3468,0.3559,0.3418,0.3417,0.3166,0.3133,0.3426,0.3409,0.356,0.3558,0.3558,0.3557,0,0.2489,0.2514,0.2532,0.2589,0.2615,0.2647,0.2763,0.2822,0.2943,0.3074,0.3126,0.329,0.3408,0.3478,0.3593,0.3549,0.3585,0.3564,0.3247,0.3206,0.3403,0.3388,0.3519,0.3516,0.3514,0.3512,0.3511,0,0.2462,0.2467,0.2524,0.2544,0.2568,0.2634,0.269,0.2815,0.2884,0.3104,0.3158,0.3331,0.34,0.3519,0.3489,0.3501,0.357,0.3236,0.3114,0.3419,0.3407,0.3394,0.3382,0.2849,0.2842,0.2837,0.2832,0,0.2421,0.2443,0.2461,0.2515,0.2559,0.2613,0.2694,0.2736,0.2894,0.2995,0.3114,0.319,0.3317,0.3207,0.3235,0.3194,0.321,0.3122,0.3564,0.2888,0.2794,0.2779,0.2788,0.2783,0.2788,0.2791,0.2794,0.2796,0.2395,0.2407,0.2445,0.2476,0.2526,0.2552,0.2547,0.2631,0.2703,0.2789,0.2948,0.2962,0.3014,0.2905,0.281,0.2735,0.2958,0.2811,0.2826,0.2847,0.2733,0.2639,0.2577,0.2581,0.2584,0.2587,0.2589,0,0.2369,0.239,0.2411,0.2425,0.2411,0.2493,0.2522,0.2467,0.2463,0.2588,0.2641,0.2445,0.238,0.2429,0.2235,0.2218,0.2172,0.2122,0.2043,0.2095,0.214,0.1987,0.1635,0.1632,0.1629,0.1626,0,0,0.2366,0.2358,0.2354,0.2297,0.2309,0.2268,0.2249,0.218,0.2196,0.2136,0.2133,0.2313,0.2386,0.2005,0.1937,0.1756,0.191,0.1677,0.2449,0.2411,0.2453,0.255,0.2374,0,0,0,0,0]},{"header":{"parameterUnit":"m.s-1","parameterCategory":2,"la1":30.2991,"la2":30.254,"lo1":-89.0895,"lo2":-89.0444,"dy":0.0017,"dx":0.0017,"nx":28,"ny":28,"refTime":"2025-08-20T09:00:00:Z","depth":"2","parameterNumber":3,"parameterNumberName":"V-component_of_CURRENTS"},"data":[0,0,0,0,0,0,0,0,0,0,0,0,0,0,0,0,0,0,0,0,0,0,0,0,0,0,0,0,0,0,0,0,0,0,0,0,0,0,0,0,0,0,0,0,0,0,0,0,0,0,0,0,0,0,0,0,0,0,0.0207,0.0207,0,0.0178,0.0178,0.0177,0.0157,0.0156,0.0156,0.0156,0.0119,0.0118,0.0117,0,0,0,0,0,0,0,0,0,0,0,0,0,0.0206,0.0206,0.0207,0.0207,0.0207,0.0178,0.0178,0.0177,0.0157,0.0156,0.0156,0.0156,0.0119,0.0118,0.0117,0,0,0,0,0,0,0,0,0,0,0,0,0,0.0194,0.0207,0.0207,0.0193,0.0192,0.0178,0.0178,0.0177,0.0157,0.0156,0.0156,0.0156,0.0119,0.0118,0.0116,0.0111,0,0,0.0112,0.0112,0,0,0,0,0,0,0,0,0.0195,0.0194,0.0196,0.0194,0.0193,0.0171,0.0163,0.0155,0.0157,0.0169,0.0156,0.0156,0.0136,0.0133,0.0127,0.0109,0.0108,0.0112,0.0111,0.0111,0.011,0,0,0,0,0,0,0,0.0196,0.0195,0.0195,0.0196,0.0194,0.0175,0.0174,0.0161,0.0153,0.0168,0.0167,0.0165,0.0135,0.0129,0.0126,0.0107,0.0112,0.0111,0.011,0.011,0.0091,0.0091,0,0,0,0,0,0,0.0203,0.0196,0.0196,0.0194,0.0194,0.0176,0.0174,0.0178,0.0153,0.015,0.0165,0.0164,0.0131,0.0128,0.0125,0.0135,0.0111,0.011,0.0109,0.009,0.0091,0.0091,0,0,0,0,0,0,0.0203,0.0204,0.0197,0.0195,0.0193,0.0176,0.0181,0.0177,0.0175,0.0151,0.0147,0.0166,0.0131,0.0127,0.0118,0.0132,0.0109,0.0108,0.009,0.009,0.0091,0.0143,0,0,0,0,0,0,0.0204,0.0204,0.0209,0.0195,0.0193,0.0198,0.0181,0.0177,0.0174,0.0172,0.0151,0.0147,0.013,0.012,0.0117,0.013,0.0107,0.009,0.009,0.0091,0.0141,0.0145,0.0149,0,0,0,0,0,0.0204,0.0215,0.0209,0.0209,0.0201,0.0198,0.0196,0.0182,0.0174,0.0178,0.0161,0.0148,0.0121,0.0119,0.0115,0.0128,0.0089,0.009,0.0091,0.0139,0.0144,0.0149,0,0,0,0,0,0,0.0214,0.0213,0.0207,0.0216,0.0211,0.0195,0.0196,0.0187,0.0176,0.0173,0.0151,0.0146,0.0143,0.0127,0.0125,0.0124,0.0104,0.0104,0.0142,0.0146,0.015,0.0169,0.0105,0,0,0,0,0,0.022,0.0228,0.0221,0.0227,0.0227,0.0212,0.0209,0.0201,0.0189,0.0184,0.017,0.0153,0.0142,0.0138,0.0123,0.0123,0.0107,0.0128,0.0133,0.0136,0.0148,0.0135,0.0139,0.0093,0.0093,0.0093,0,0,0.0224,0.0225,0.0228,0.023,0.0223,0.0232,0.021,0.021,0.022,0.0182,0.019,0.0166,0.0144,0.0143,0.0141,0.0133,0.0139,0.0137,0.014,0.015,0.0136,0.014,0.0144,0.0094,0.0094,0.0094,0,0,0.0241,0.0239,0.0254,0.0256,0.0253,0.0246,0.0249,0.0239,0.0239,0.024,0.0215,0.0202,0.0186,0.0175,0.0166,0.0184,0.0159,0.0177,0.0216,0.0203,0.0207,0.021,0.019,0.0191,0.0181,0.0182,0.0182,0,0.0246,0.0267,0.0257,0.0273,0.0282,0.0257,0.0278,0.0273,0.0262,0.0269,0.0251,0.023,0.0205,0.0211,0.0212,0.0195,0.018,0.0201,0.0209,0.0212,0.0214,0.0194,0.0194,0.0184,0.0184,0.0184,0.0183,0,0.0278,0.0294,0.0303,0.0319,0.0326,0.0338,0.0335,0.0339,0.0332,0.0326,0.0329,0.0294,0.0285,0.027,0.0245,0.0252,0.0232,0.0214,0.02,0.0222,0.0198,0.0198,0.0188,0.0187,0.0186,0.0185,0,0,0.0294,0.0322,0.0325,0.0349,0.0355,0.0368,0.0386,0.0402,0.0426,0.0402,0.0432,0.0393,0.0371,0.0359,0.0325,0.0307,0.0299,0.0271,0.0269,0.0257,0.0266,0.0231,0.0227,0.0282,0.0283,0.0283,0.0241,0,0.0323,0.0372,0.0375,0.0421,0.0449,0.0442,0.047,0.0478,0.0478,0.0497,0.0461,0.0471,0.0407,0.0409,0.0378,0.0328,0.0301,0.0312,0.0241,0.0239,0.0211,0.0227,0.0247,0.0209,0.024,0.024,0.024,0,0.0356,0.039,0.0444,0.0494,0.0506,0.0527,0.0573,0.0596,0.0606,0.0611,0.06,0.0571,0.0547,0.0491,0.0412,0.0422,0.0348,0.0297,0.0294,0.0247,0.0205,0.0192,0.0207,0.0239,0.0239,0.0239,0.0239,0,0.0388,0.0438,0.0489,0.0504,0.0552,0.0579,0.0605,0.0629,0.0676,0.0687,0.072,0.0669,0.067,0.0573,0.0457,0.0439,0.0366,0.033,0.0226,0.0222,0.0218,0.0214,0.0269,0.0269,0.0269,0.0269,0.0269,0,0.0424,0.0464,0.051,0.0539,0.0614,0.0628,0.0707,0.0723,0.0773,0.0851,0.0785,0.0829,0.0692,0.063,0.0499,0.0368,0.0396,0.0239,0.0213,0.0235,0.0232,0.0242,0.0239,0.0267,0.0268,0.0268,0.0268,0,0.0452,0.0476,0.0543,0.0605,0.0632,0.0688,0.0786,0.0851,0.0879,0.098,0.0995,0.0962,0.0883,0.0726,0.058,0.0441,0.0307,0.0246,0.0275,0.0252,0.0158,0.0159,0.0134,0.0132,0.0131,0.013,0.0129,0,0.0471,0.0507,0.0595,0.0651,0.0681,0.077,0.0845,0.0902,0.0985,0.1073,0.1133,0.1083,0.1064,0.0817,0.0578,0.0346,0.0306,0.0191,0.0154,0.0169,0.0146,0.0149,0.0151,0.0166,0.0166,0.0165,0.0165,0,0.0513,0.054,0.06,0.0716,0.08,0.091,0.1018,0.1098,0.1191,0.127,0.1352,0.1339,0.1118,0.0889,0.0559,0.0394,0.0228,0.0174,0.0202,0.0193,0.0196,0.0175,0.0177,0.0162,0.0162,0.0162,0.0162,0.0163,0.0546,0.0598,0.0681,0.0791,0.0897,0.1037,0.1137,0.1261,0.1398,0.1522,0.1499,0.148,0.1215,0.0796,0.051,0.0204,0.0219,0.0095,0.0098,0.0102,0.0109,0.0109,0.0059,0.0059,0.0059,0.0059,0.0058,0,0.0596,0.066,0.0758,0.0891,0.1012,0.1068,0.125,0.1346,0.1512,0.1614,0.1665,0.14,0.1142,0.0833,0.039,0.0118,0.01,0.0016,0.006,0.0066,0.0071,0.0077,0.0018,0.0017,0.0017,0.0016,0,0,0.0626,0.0721,0.0771,0.0962,0.1066,0.1241,0.1351,0.1487,0.1587,0.1667,0.1665,0.1615,0.1244,0.0909,0.0543,0.0287,0.0236,0.0226,0.0288,0.039,0.0398,0.0145,0.0165,0,0,0,0,0]}],[{"header":{"parameterUnit":"m.s-1","parameterCategory":2,"la1":30.2991,"la2":30.254,"lo1":-89.0895,"lo2":-89.0444,"dy":0.0017,"dx":0.0017,"nx":28,"ny":28,"refTime":"2025-08-20T09:00:00:Z","depth":"4","parameterNumber":2,"parameterNumberName":"U-component_of_CURRENTS"},"data":[0,0,0,0,0,0,0,0,0,0,0,0,0,0,0,0,0,0,0,0,0,0,0,0,0,0,0,0,0,0,0,0,0,0,0,0,0,0,0,0,0,0,0,0,0,0,0,0,0,0,0,0,0,0,0,0,0,0,0.1646,0.1647,0,0.1688,0.1689,0.1689,0.1734,0.1735,0.1736,0.1737,0.1794,0.1794,0.1795,0,0,0,0,0,0,0,0,0,0,0,0,0,0.1599,0.1599,0.1646,0.1647,0.1647,0.1688,0.1689,0.1689,0.1734,0.1735,0.1736,0.1737,0.1793,0.1794,0.1795,0,0,0,0,0,0,0,0,0,0,0,0,0,0.1626,0.16,0.1646,0.1676,0.168,0.1688,0.1689,0.1689,0.1734,0.1735,0.1736,0.1737,0.1793,0.1794,0.1795,0.1778,0,0,0.1799,0.1799,0,0,0,0,0,0,0,0,0.1625,0.1628,0.1671,0.1674,0.1678,0.1709,0.1693,0.172,0.1734,0.1711,0.1737,0.1738,0.1767,0.177,0.1773,0.178,0.1783,0.1799,0.1799,0.18,0.18,0,0,0,0,0,0,0,0.1623,0.1626,0.1661,0.1672,0.1676,0.1686,0.1691,0.1698,0.173,0.1713,0.1717,0.1725,0.1769,0.1771,0.1774,0.1784,0.1799,0.18,0.18,0.1801,0.1891,0.1893,0,0,0,0,0,0,0.162,0.1624,0.166,0.1662,0.1656,0.1686,0.1692,0.1696,0.173,0.1737,0.1723,0.1727,0.1769,0.1773,0.1777,0.1857,0.18,0.1801,0.1802,0.189,0.1892,0.1894,0,0,0,0,0,0,0.1619,0.1623,0.1658,0.1646,0.1652,0.1686,0.169,0.1696,0.1737,0.1738,0.1745,0.1762,0.177,0.1775,0.1818,0.1856,0.1802,0.1803,0.1888,0.189,0.1893,0.1954,0,0,0,0,0,0,0.1617,0.1622,0.1642,0.1646,0.1652,0.1685,0.169,0.1696,0.1738,0.1743,0.1773,0.1777,0.1771,0.1816,0.1819,0.1856,0.1803,0.1885,0.1889,0.1892,0.1949,0.1958,0.1965,0,0,0,0,0,0.1615,0.163,0.1643,0.1649,0.1673,0.1686,0.1691,0.1718,0.1739,0.1758,0.1785,0.1778,0.1839,0.1818,0.1821,0.186,0.1884,0.1888,0.1892,0.1946,0.1956,0.1965,0,0,0,0,0,0,0.1622,0.1636,0.165,0.1671,0.169,0.1695,0.1722,0.1738,0.1773,0.1792,0.1795,0.1801,0.1853,0.1848,0.1826,0.1897,0.1862,0.1867,0.1903,0.1913,0.192,0.192,0.1804,0,0,0,0,0,0.1632,0.165,0.1662,0.1684,0.1697,0.1717,0.1735,0.1753,0.1775,0.1794,0.1815,0.184,0.1863,0.1883,0.1898,0.1933,0.1934,0.1962,0.197,0.1977,0.198,0.2018,0.203,0.1906,0.1906,0.1906,0,0,0.1642,0.1654,0.1666,0.1689,0.1708,0.1728,0.1732,0.1768,0.1796,0.1793,0.1852,0.1869,0.1879,0.1922,0.1945,0.1929,0.2014,0.1982,0.1987,0.1987,0.2024,0.2036,0.2046,0.1909,0.1908,0.1908,0,0,0.1657,0.1683,0.17,0.1718,0.1752,0.1763,0.1782,0.1809,0.1839,0.1886,0.1896,0.1939,0.1973,0.1988,0.1999,0.2059,0.2053,0.2073,0.2115,0.2153,0.2163,0.2172,0.2191,0.2201,0.2078,0.2078,0.2079,0,0.1675,0.1692,0.171,0.1729,0.1752,0.1782,0.1807,0.1835,0.1878,0.1906,0.1918,0.1989,0.2003,0.205,0.2077,0.2077,0.2093,0.2076,0.2163,0.2172,0.218,0.2197,0.2207,0.2082,0.2081,0.2081,0.2081,0,0.1686,0.1718,0.1732,0.1766,0.1793,0.1822,0.1856,0.1899,0.1943,0.1968,0.204,0.2063,0.2105,0.2122,0.212,0.2189,0.2179,0.2166,0.2136,0.2196,0.221,0.222,0.2087,0.2085,0.2084,0.2084,0,0,0.1678,0.173,0.174,0.1761,0.1818,0.1831,0.1895,0.1945,0.1986,0.2047,0.2102,0.2158,0.2182,0.2196,0.2208,0.2245,0.232,0.224,0.224,0.2254,0.2402,0.2252,0.2247,0.233,0.2332,0.2333,0.2389,0,0.1688,0.1725,0.1754,0.1801,0.1822,0.1874,0.1919,0.1975,0.2032,0.2092,0.2145,0.2201,0.2207,0.224,0.2283,0.2312,0.2349,0.2305,0.2345,0.2346,0.2202,0.2255,0.234,0.2396,0.2398,0.24,0.2401,0,0.168,0.171,0.1757,0.1811,0.1827,0.1865,0.1945,0.1992,0.2082,0.2131,0.2207,0.2244,0.2323,0.2313,0.2404,0.2381,0.2401,0.2416,0.2418,0.2261,0.2214,0.2324,0.2418,0.2417,0.2415,0.2414,0.2413,0,0.1642,0.1705,0.1744,0.1765,0.1835,0.1877,0.1926,0.2013,0.2059,0.2169,0.2219,0.2305,0.2369,0.2413,0.2462,0.2446,0.2546,0.2518,0.2398,0.2387,0.2478,0.2468,0.2575,0.2575,0.2575,0.2574,0.2574,0,0.1616,0.1649,0.1734,0.1751,0.1797,0.1863,0.1926,0.1989,0.2087,0.2138,0.2243,0.2296,0.2404,0.2469,0.2488,0.2475,0.2571,0.2409,0.2394,0.2503,0.2495,0.2485,0.2474,0.2577,0.2576,0.2576,0.2575,0,0.1558,0.1618,0.1661,0.175,0.178,0.1817,0.1916,0.195,0.2068,0.2144,0.2186,0.2325,0.2408,0.2483,0.2563,0.2497,0.25,0.247,0.2589,0.2578,0.2307,0.2298,0.2324,0.2319,0.2315,0.2312,0.2309,0,0.1526,0.1547,0.1647,0.1666,0.1711,0.1778,0.1811,0.193,0.197,0.2137,0.2158,0.2296,0.2368,0.2364,0.2454,0.2469,0.2445,0.2418,0.2348,0.23,0.2283,0.2281,0.2278,0.2302,0.2301,0.23,0.2299,0,0.1462,0.1517,0.1549,0.1593,0.1636,0.1668,0.1736,0.1753,0.1885,0.2018,0.2076,0.2122,0.2214,0.2273,0.231,0.2315,0.2414,0.2374,0.2382,0.2316,0.2274,0.2261,0.2263,0.2285,0.2287,0.2289,0.2289,0,0.1415,0.1417,0.1466,0.1488,0.1541,0.1536,0.1584,0.1628,0.1689,0.1876,0.1897,0.2049,0.2193,0.2194,0.2227,0.2223,0.2181,0.2089,0.2111,0.2127,0.2037,0.1952,0.1856,0,0,0,0,0,0.1352,0.1331,0.1346,0.1355,0.1406,0.1434,0.1517,0.157,0.1711,0.1701,0.1791,0.1865,0.1925,0.2013,0.197,0.2133,0.2183,0.2069,0.2087,0.2207,0.2224,0.2135,0,0,0,0,0,0,0.1301,0.1313,0.1304,0.1249,0.1233,0.1264,0.1313,0.1402,0.1407,0.1569,0.1622,0.1745,0.1844,0.1938,0.1936,0.1958,0.1925,0.217,0.2164,0.2198,0.2213,0.2226,0.214,0,0,0,0,0]},{"header":{"parameterUnit":"m.s-1","parameterCategory":2,"la1":30.2991,"la2":30.254,"lo1":-89.0895,"lo2":-89.0444,"dy":0.0017,"dx":0.0017,"nx":28,"ny":28,"refTime":"2025-08-20T09:00:00:Z","depth":"4","parameterNumber":3,"parameterNumberName":"V-component_of_CURRENTS"},"data":[0,0,0,0,0,0,0,0,0,0,0,0,0,0,0,0,0,0,0,0,0,0,0,0,0,0,0,0,0,0,0,0,0,0,0,0,0,0,0,0,0,0,0,0,0,0,0,0,0,0,0,0,0,0,0,0,0,0,0.0131,0.0131,0,0.0112,0.0112,0.0112,0.01,0.01,0.01,0.01,0.0074,0.0073,0.0073,0,0,0,0,0,0,0,0,0,0,0,0,0,0.0129,0.0129,0.0131,0.0131,0.0131,0.0112,0.0112,0.0112,0.01,0.01,0.01,0.01,0.0074,0.0073,0.0073,0,0,0,0,0,0,0,0,0,0,0,0,0,0.0122,0.0129,0.0131,0.0123,0.0122,0.0112,0.0112,0.0111,0.01,0.01,0.01,0.01,0.0074,0.0073,0.0073,0.0067,0,0,0.0069,0.0069,0,0,0,0,0,0,0,0,0.0122,0.0122,0.0124,0.0124,0.0123,0.0109,0.0102,0.0096,0.01,0.0108,0.01,0.01,0.0085,0.0083,0.0079,0.0066,0.0065,0.0069,0.0069,0.0068,0.0068,0,0,0,0,0,0,0,0.0123,0.0122,0.0123,0.0124,0.0123,0.0111,0.011,0.01,0.0096,0.0107,0.0106,0.0105,0.0085,0.008,0.0079,0.0064,0.0069,0.0068,0.0068,0.0067,0.0052,0.0053,0,0,0,0,0,0,0.0128,0.0123,0.0124,0.0123,0.0123,0.0111,0.011,0.0113,0.0097,0.0094,0.0105,0.0104,0.0082,0.008,0.0078,0.0085,0.0068,0.0067,0.0067,0.0052,0.0052,0.0053,0,0,0,0,0,0,0.0128,0.0128,0.0125,0.0122,0.0121,0.0111,0.0114,0.0112,0.0113,0.0095,0.0093,0.0108,0.0082,0.0079,0.0074,0.0084,0.0067,0.0066,0.0052,0.0052,0.0053,0.0091,0,0,0,0,0,0,0.0128,0.0128,0.0133,0.0123,0.0121,0.0126,0.0114,0.0112,0.0112,0.0111,0.0097,0.0094,0.0082,0.0075,0.0073,0.0082,0.0065,0.0052,0.0052,0.0053,0.009,0.0093,0.0095,0,0,0,0,0,0.0128,0.0136,0.0133,0.0133,0.0128,0.0126,0.0124,0.0116,0.0112,0.0116,0.0104,0.0095,0.0076,0.0075,0.0072,0.0081,0.0052,0.0052,0.0052,0.0088,0.0092,0.0095,0,0,0,0,0,0,0.0135,0.0135,0.0132,0.0139,0.0136,0.0125,0.0126,0.0121,0.0114,0.0113,0.0097,0.0094,0.0092,0.008,0.0079,0.0077,0.0062,0.0062,0.0091,0.0094,0.0097,0.011,0.0064,0,0,0,0,0,0.014,0.0147,0.0142,0.0147,0.0147,0.0138,0.0136,0.0131,0.0123,0.0121,0.0111,0.0099,0.0091,0.0088,0.0077,0.0077,0.0058,0.008,0.0083,0.0085,0.0094,0.0072,0.0074,0.0054,0.0054,0.0054,0,0,0.0143,0.0144,0.0148,0.015,0.0145,0.0152,0.0137,0.0138,0.0147,0.0119,0.0127,0.0109,0.0093,0.0092,0.009,0.0084,0.0079,0.0086,0.0088,0.0095,0.0073,0.0074,0.0076,0.0054,0.0054,0.0054,0,0,0.0156,0.0156,0.0168,0.0169,0.0168,0.0164,0.0167,0.016,0.0161,0.0164,0.0146,0.0135,0.0125,0.0114,0.0108,0.012,0.0095,0.0115,0.0143,0.0121,0.0123,0.0124,0.0096,0.0094,0.0118,0.0118,0.0118,0,0.0161,0.0176,0.017,0.0181,0.0189,0.0173,0.0189,0.0186,0.018,0.0184,0.0173,0.0156,0.0138,0.0138,0.014,0.0128,0.0108,0.0132,0.0126,0.0126,0.0127,0.0098,0.0096,0.012,0.0119,0.0119,0.0119,0,0.0183,0.0196,0.0203,0.0216,0.0222,0.0232,0.0231,0.0235,0.0232,0.0228,0.0228,0.0201,0.0193,0.0182,0.0165,0.0162,0.0143,0.0131,0.0119,0.0131,0.0099,0.0096,0.0122,0.0122,0.0121,0.0121,0,0,0.0193,0.0215,0.0219,0.0237,0.0244,0.0255,0.027,0.0282,0.0299,0.0281,0.0299,0.0272,0.0253,0.0244,0.0218,0.0197,0.0176,0.0169,0.0166,0.0144,0.0122,0.0104,0.0099,0.0161,0.0161,0.0161,0.0096,0,0.0214,0.025,0.0254,0.0291,0.0312,0.0309,0.0331,0.0338,0.0338,0.0349,0.0317,0.032,0.0279,0.0276,0.0248,0.0199,0.0171,0.0194,0.0111,0.0108,0.0094,0.0096,0.016,0.0094,0.0093,0.0092,0.0092,0,0.0235,0.0261,0.0303,0.0344,0.0353,0.0372,0.0408,0.0427,0.043,0.0431,0.0417,0.0389,0.0359,0.0323,0.0241,0.0257,0.0194,0.0149,0.0145,0.0116,0.0085,0.0079,0.0086,0.0086,0.0087,0.0087,0.0088,0,0.0254,0.0295,0.0335,0.0348,0.0387,0.041,0.0434,0.0452,0.0486,0.0485,0.0499,0.045,0.0439,0.0354,0.0253,0.0247,0.0158,0.0138,0.006,0.0057,0.0076,0.0075,0.0078,0.0078,0.0078,0.0078,0.0078,0,0.0276,0.0309,0.0351,0.0373,0.0433,0.0448,0.051,0.0523,0.0557,0.0602,0.0546,0.0557,0.0448,0.0379,0.0274,0.0159,0.017,0.0067,0.0042,0.0091,0.0094,0.0072,0.0073,0.0075,0.0076,0.0077,0.0077,0,0.029,0.0313,0.0366,0.042,0.0444,0.049,0.0571,0.0619,0.0634,0.069,0.0694,0.0645,0.0554,0.0428,0.0295,0.0199,0.0082,0.0035,0.0096,0.0076,-0.0013,-0.001,-0.0056,-0.0057,-0.0058,-0.0059,-0.0059,0,0.0299,0.0327,0.0404,0.0449,0.0478,0.0551,0.0612,0.0658,0.0714,0.0743,0.0772,0.0702,0.0647,0.0447,0.0303,0.0099,0.0064,-0.0005,-0.0011,-0.0006,-0.0025,-0.0021,-0.0016,-0.0061,-0.0061,-0.0061,-0.0061,0,0.0322,0.0348,0.0397,0.0489,0.056,0.0647,0.0731,0.0775,0.0833,0.0844,0.0839,0.073,0.0627,0.0457,0.0299,0.0149,0.0036,-0.0015,-0.0015,-0.0021,-0.0013,-0.003,-0.0024,-0.0065,-0.0064,-0.0064,-0.0064,0,0.0341,0.0378,0.0445,0.0529,0.0622,0.0718,0.076,0.0825,0.0876,0.09,0.0895,0.0772,0.0708,0.0483,0.0336,0.0188,0.0143,0.0083,0.0077,0.0079,0.0131,0.0162,0.0147,0,0,0,0,0,0.0361,0.0407,0.0483,0.0579,0.0674,0.0731,0.0833,0.0871,0.0916,0.0924,0.0914,0.0813,0.0599,0.0505,0.0355,0.0303,0.0108,0.0119,0.0033,-0.0082,-0.0079,-0.0044,0,0,0,0,0,0,0.0374,0.0443,0.0482,0.0607,0.0678,0.0791,0.0858,0.0893,0.0896,0.0911,0.0803,0.0756,0.0551,0.0684,0.0346,0.0301,0.022,0.0023,0.0019,-0.0085,-0.0081,-0.0078,-0.0041,0,0,0,0,0]}]]